sat.trackr.live / text

‹ back to catalog

SHIYAN-12 01 (SY-12 01)

NORAD 50321 · 2021-129A

PAYLOAD ACTIVE UNKNOWN

§ Identity

Operator
Country
PRC
Launch date
2021-12-23
Launch site
WSC
Launch vehicle
Mass (kg)
RCS (m²)

Purposes: comms

External: N2YO · Heavens-Above · Gunter

§ Orbital elements

Epoch: 2026-09-19T19:37:41.358720Z

Period
1,433.13 min
Inclination
3.9116°
Eccentricity
0.0001684
Mean motion
1.00479349 rev/d
Perigee alt
35,721.4 km
Apogee alt
35,735.6 km
Semi-major
42,106.6 km
B*
0.0000e+0
RAAN
78.5705°
Arg perigee
172.5257°
Mean anomaly
87.1250°
Rev number
1,744

§ Raw data

SHIYAN-12 01 (SY-12 01)1 50321U 21129A   26262.81783980  .00000111  00000+0  00000+0 0  99992 50321   3.9116  78.5705 0001684 172.5257  87.1250  1.00479349 17449

JSON: /api/v1/satellites/50321 · /tle

For live sub-satellite position, see the globe view (requires WebGL).

§ Visibility from observer

Set your observer location to see the next 7 days of passes ≥ 10°. The values pass through the URL so the page stays shareable.

No JS? Fill the form by hand. The geolocation button needs JavaScript.